This is the latest recevied weather packets stored in our database for station/object KL1IO. If no packets are shown the sender has not sent any weather packets the latest 1 day(s).
| Time | Temp. | Humidity | Pressure | Rain* | Wind** | Luminosity | Snow |
|---|---|---|---|---|---|---|---|
| 1778040169 | 2.78° C | 99% | 1013 hPa | 1.27 mm | 0 m/s | 38 W/m² | - |
| 1778039865 | 3.33° C | 99% | 1012.8 hPa | 1.27 mm | 0 m/s | 38 W/m² | - |
| 1778039562 | 3.33° C | 99% | 1012.9 hPa | 1.78 mm | 0 m/s | 42 W/m² | - |
| 1778039259 | 3.33° C | 99% | 1012.9 hPa | 1.78 mm | 0 m/s | 38 W/m² | - |
| 1778038956 | 3.33° C | 99% | 1013 hPa | 0 mm | 0 m/s | 41 W/m² | - |
| 1778038653 | 3.33° C | 99% | 1013 hPa | 0 mm | 0 m/s | 42 W/m² | - |
| 1778038350 | 3.89° C | 99% | 1012.8 hPa | 1.27 mm | 0 m/s | 44 W/m² | - |
| 1778038047 | 3.89° C | 99% | 1012.9 hPa | 1.27 mm | 0 m/s | 46 W/m² | - |
| 1778037744 | 3.89° C | 99% | 1012.7 hPa | 0 mm | 0 m/s | 44 W/m² | - |
| 1778037440 | 3.89° C | 99% | 1012.7 hPa | 1.78 mm | 0 m/s | 41 W/m² | - |
| 1778037138 | 3.33° C | 99% | 1012.5 hPa | 1.78 mm | 0 m/s | 40 W/m² | - |
| 1778036836 | 3.89° C | 99% | 1012.7 hPa | 1.27 mm | 0 m/s | 38 W/m² | - |
| 1778036533 | 3.33° C | 99% | 1012.6 hPa | 1.78 mm | 0 m/s | 32 W/m² | - |
| 1778036230 | 3.33° C | 99% | 1012.8 hPa | 3.56 mm | 0 m/s | 30 W/m² | - |
| 1778035926 | 3.89° C | 99% | 1012.5 hPa | 3.05 mm | 0 m/s | 30 W/m² | - |
| 1778035624 | 3.89° C | 99% | 1012.5 hPa | 1.27 mm | 0 m/s | 30 W/m² | - |
| 1778035320 | 3.89° C | 99% | 1012.4 hPa | 1.78 mm | 0 m/s | 36 W/m² | - |
| 1778035016 | 3.89° C | 99% | 1012.5 hPa | 3.05 mm | 0 m/s | 41 W/m² | - |
| 1778034714 | 3.89° C | 99% | 1012.3 hPa | 3.05 mm | 0 m/s | 44 W/m² | - |
| 1778034410 | 3.89° C | 99% | 1012.2 hPa | 3.05 mm | 0 m/s | 44 W/m² | - |
| 1778034108 | 3.89° C | 99% | 1012.3 hPa | 3.05 mm | 0 m/s | 46 W/m² | - |
| 1778033806 | 3.89° C | 99% | 1012.2 hPa | 1.78 mm | 0 m/s | 50 W/m² | - |
| 1778033503 | 3.89° C | 99% | 1012.2 hPa | 1.27 mm | 0.45 m/s, 202° | 50 W/m² | - |
| 1778033199 | 3.89° C | 98% | 1012.1 hPa | 4.32 mm | 0 m/s | 49 W/m² | - |
| 1778032897 | 3.89° C | 99% | 1012.2 hPa | 3.05 mm | 0 m/s | 51 W/m² | - |
* Rain latest hour (hover to see other rain measurements)
** Current wind speed in m/s (hover to see current wind gust speed)